Wetterdaten: Samstag, 26.10.2013
Datum Zeit Temperatur Luftfeuchte Luftdruck Regen Wind Richtung Richtung Taupunkt Windchill Windben
26.10.2013 00:00 6,9 C 88 % 1019,1 hPa 0,0 l/m 0,3 km/h (0 Bft) O-NO 67 5,1 C 7,2 C 2,6 km/h (1 Bft)
26.10.2013 00:05 7,4 C 88 % 1019,3 hPa 0,0 l/m 0,6 km/h (0 Bft) NO 45 5,5 C 7,2 C 2,7 km/h (1 Bft)
26.10.2013 00:10 7,1 C 87 % 1019,3 hPa 0,0 l/m 0,6 km/h (0 Bft) N-NO 22 5,1 C 7,3 C 0,0 km/h (0 Bft)
26.10.2013 00:15 7,1 C 87 % 1019,3 hPa 0,0 l/m 0,0 km/h (0 Bft) N-NO 22 5,1 C 7,1 C 0,0 km/h (0 Bft)
26.10.2013 00:20 6,9 C 88 % 1019,3 hPa 0,0 l/m 0,0 km/h (0 Bft) NO 45 5,1 C 7,1 C 0,0 km/h (0 Bft)
26.10.2013 00:25 6,5 C 88 % 1019,2 hPa 0,0 l/m 0,0 km/h (0 Bft) O 90 4,7 C 7,0 C 0,0 km/h (0 Bft)
26.10.2013 00:30 6,8 C 88 % 1019,2 hPa 0,0 l/m 0,0 km/h (0 Bft) N-NO 22 5,0 C 6,9 C 0,0 km/h (0 Bft)
26.10.2013 00:35 6,8 C 89 % 1019,2 hPa 0,0 l/m 0,0 km/h (0 Bft) O 90 5,1 C 7,1 C 0,0 km/h (0 Bft)
26.10.2013 00:40 6,9 C 89 % 1019,2 hPa 0,0 l/m 0,0 km/h (0 Bft) O 90 5,2 C 7,1 C 0,0 km/h (0 Bft)
26.10.2013 00:45 6,8 C 89 % 1019,4 hPa 0,0 l/m 0,0 km/h (0 Bft) NO 45 5,1 C 7,1 C 0,0 km/h (0 Bft)
26.10.2013 00:50 6,6 C 88 % 1019,4 hPa 0,0 l/m 0,0 km/h (0 Bft) O 90 4,8 C 7,1 C 0,0 km/h (0 Bft)
26.10.2013 00:55 6,3 C 88 % 1019,4 hPa 0,0 l/m 0,0 km/h (0 Bft) O 90 4,5 C 6,9 C 0,0 km/h (0 Bft)
26.10.2013 01:00 6,2 C 88 % 1019,4 hPa 0,0 l/m 0,0 km/h (0 Bft) O 90 4,4 C 6,7 C 0,0 km/h (0 Bft)
26.10.2013 01:05 6,4 C 88 % 1019,3 hPa 0,0 l/m 0,3 km/h (0 Bft) N-NO 22 4,6 C 6,5 C 0,0 km/h (0 Bft)
26.10.2013 01:08 6,3 C 89 % 1019,3 hPa 0,0 l/m 0,3 km/h (0 Bft) NO 45 4,6 C 6,6 C 2,6 km/h (1 Bft)
26.10.2013 01:10 6,3 C 89 % 1019,3 hPa 0,0 l/m 0,3 km/h (0 Bft) NO 45 4,6 C 6,6 C 0,0 km/h (0 Bft)
26.10.2013 01:15 6,5 C 89 % 1019,3 hPa 0,0 l/m 0,0 km/h (0 Bft) O 90 4,8 C 6,8 C 0,0 km/h (0 Bft)
26.10.2013 01:20 6,9 C 89 % 1019,3 hPa 0,0 l/m 0,3 km/h (0 Bft) O-NO 67 5,2 C 6,8 C 1,6 km/h (1 Bft)
26.10.2013 01:25 7,4 C 89 % 1019,4 hPa 0,0 l/m 0,8 km/h (0 Bft) O-SO 112 5,7 C 7,1 C 2,9 km/h (1 Bft)
26.10.2013 01:30 7,0 C 89 % 1019,4 hPa 0,0 l/m 1,4 km/h (1 Bft) S-SW 202 5,3 C 7,2 C 1,8 km/h (1 Bft)
26.10.2013 01:35 7,0 C 88 % 1019,4 hPa 0,0 l/m 2,4 km/h (1 Bft) O-SO 112 5,2 C 7,2 C 6,6 km/h (2 Bft)
26.10.2013 01:40 7,3 C 89 % 1019,4 hPa 0,0 l/m 2,6 km/h (1 Bft) O-NO 67 5,6 C 7,5 C 3,5 km/h (1 Bft)
26.10.2013 01:45 7,9 C 88 % 1019,9 hPa 0,0 l/m 2,1 km/h (1 Bft) S-SW 202 6,0 C 7,9 C 0,0 km/h (0 Bft)
26.10.2013 01:50 7,3 C 88 % 1019,9 hPa 0,0 l/m 1,0 km/h (0 Bft) W-SW 247 5,4 C 7,8 C 0,0 km/h (0 Bft)
26.10.2013 01:55 8,1 C 88 % 1019,9 hPa 0,0 l/m 1,1 km/h (1 Bft) O 90 6,2 C 7,8 C 4,8 km/h (1 Bft)
26.10.2013 02:00 9,9 C 87 % 1019,9 hPa 0,0 l/m 2,3 km/h (1 Bft) O-NO 67 7,8 C 8,7 C 4,3 km/h (1 Bft)
26.10.2013 02:05 10,6 C 82 % 1020,1 hPa 0,0 l/m 3,2 km/h (1 Bft) O-NO 67 7,7 C 9,9 C 2,6 km/h (1 Bft)
26.10.2013 02:10 10,4 C 79 % 1020,1 hPa 0,0 l/m 2,9 km/h (1 Bft) O-SO 112 6,9 C 10,1 C 2,3 km/h (1 Bft)
26.10.2013 02:15 8,9 C 78 % 1020,1 hPa 0,0 l/m 1,3 km/h (1 Bft) W-NW 292 5,3 C 10,5 C 0,0 km/h (0 Bft)
26.10.2013 02:20 8,2 C 78 % 1020,1 hPa 0,0 l/m 0,6 km/h (0 Bft) W-SW 247 4,6 C 10,1 C 0,0 km/h (0 Bft)
26.10.2013 02:25 7,5 C 79 % 1020,3 hPa 0,0 l/m 0,2 km/h (0 Bft) N 360 4,1 C 9,3 C 4,2 km/h (1 Bft)
26.10.2013 02:30 8,3 C 81 % 1020,3 hPa 0,0 l/m 0,5 km/h (0 Bft) O 90 5,2 C 8,9 C 2,6 km/h (1 Bft)
26.10.2013 02:35 10,6 C 80 % 1020,3 hPa 0,0 l/m 2,6 km/h (1 Bft) O-SO 112 7,3 C 9,4 C 4,2 km/h (1 Bft)
26.10.2013 02:40 9,7 C 77 % 1020,3 hPa 0,0 l/m 2,7 km/h (1 Bft) W 270 5,9 C 10,3 C 1,6 km/h (1 Bft)
26.10.2013 02:45 9,9 C 77 % 1020,6 hPa 0,0 l/m 1,6 km/h (1 Bft) O-NO 67 6,1 C 10,3 C 4,8 km/h (1 Bft)
26.10.2013 02:50 11,0 C 75 % 1020,6 hPa 0,0 l/m 2,1 km/h (1 Bft) O-SO 112 6,7 C 10,4 C 4,0 km/h (1 Bft)
26.10.2013 02:55 11,5 C 72 % 1020,6 hPa 0,0 l/m 2,7 km/h (1 Bft) O-SO 112 6,6 C 10,6 C 3,5 km/h (1 Bft)
26.10.2013 03:00 11,5 C 70 % 1020,6 hPa 0,0 l/m 4,2 km/h (1 Bft) SO 135 6,2 C 11,5 C 4,3 km/h (1 Bft)
26.10.2013 03:05 11,4 C 70 % 1020,7 hPa 0,0 l/m 4,2 km/h (1 Bft) O 90 6,1 C 11,7 C 3,7 km/h (1 Bft)
26.10.2013 03:10 11,5 C 69 % 1020,7 hPa 0,0 l/m 4,0 km/h (1 Bft) O-SO 112 6,0 C 11,7 C 4,5 km/h (1 Bft)
26.10.2013 03:15 11,3 C 69 % 1020,7 hPa 0,0 l/m 3,4 km/h (1 Bft) O-SO 112 5,8 C 11,7 C 2,7 km/h (1 Bft)
26.10.2013 03:20 11,4 C 69 % 1020,7 hPa 0,0 l/m 2,7 km/h (1 Bft) O-SO 112 5,9 C 11,6 C 2,6 km/h (1 Bft)
26.10.2013 03:25 11,7 C 68 % 1020,9 hPa 0,0 l/m 3,4 km/h (1 Bft) O 90 6,0 C 11,7 C 4,8 km/h (1 Bft)
26.10.2013 03:30 11,5 C 68 % 1020,9 hPa 0,0 l/m 3,4 km/h (1 Bft) O 90 5,8 C 11,7 C 4,8 km/h (1 Bft)
26.10.2013 03:35 11,3 C 69 % 1020,9 hPa 0,0 l/m 4,0 km/h (1 Bft) O-SO 112 5,8 C 11,7 C 2,7 km/h (1 Bft)
26.10.2013 03:40 11,2 C 69 % 1020,9 hPa 0,0 l/m 2,9 km/h (1 Bft) S-SO 157 5,7 C 11,7 C 2,1 km/h (1 Bft)
26.10.2013 03:45 11,1 C 70 % 1020,9 hPa 0,0 l/m 2,6 km/h (1 Bft) SO 135 5,8 C 11,7 C 1,9 km/h (1 Bft)
26.10.2013 03:50 11,0 C 70 % 1020,9 hPa 0,0 l/m 2,6 km/h (1 Bft) SO 135 5,7 C 11,7 C 1,9 km/h (1 Bft)
26.10.2013 03:55 10,7 C 71 % 1020,9 hPa 0,0 l/m 1,9 km/h (1 Bft) O-SO 112 5,7 C 11,5 C 0,0 km/h (0 Bft)
26.10.2013 04:00 10,6 C 72 % 1020,9 hPa 0,0 l/m 1,9 km/h (1 Bft) O-SO 112 5,8 C 11,5 C 0,0 km/h (0 Bft)
26.10.2013 04:05 10,9 C 72 % 1020,9 hPa 0,0 l/m 1,1 km/h (1 Bft) O 90 6,1 C 11,0 C 3,9 km/h (1 Bft)
26.10.2013 04:10 11,0 C 72 % 1020,9 hPa 0,0 l/m 1,9 km/h (1 Bft) NO 45 6,2 C 11,1 C 3,5 km/h (1 Bft)
26.10.2013 04:15 10,9 C 72 % 1020,9 hPa 0,0 l/m 2,6 km/h (1 Bft) O-SO 112 6,1 C 11,5 C 5,0 km/h (1 Bft)
26.10.2013 04:20 11,0 C 72 % 1020,9 hPa 0,0 l/m 2,6 km/h (1 Bft) O 90 6,2 C 11,6 C 3,7 km/h (1 Bft)
26.10.2013 04:25 10,8 C 72 % 1020,7 hPa 0,0 l/m 2,6 km/h (1 Bft) S-SO 157 6,0 C 11,7 C 2,9 km/h (1 Bft)
26.10.2013 04:30 10,4 C 72 % 1020,7 hPa 0,0 l/m 3,4 km/h (1 Bft) SO 135 5,6 C 11,4 C 5,3 km/h (1 Bft)
26.10.2013 04:35 10,2 C 74 % 1020,7 hPa 0,0 l/m 3,1 km/h (1 Bft) SO 135 5,8 C 10,8 C 4,8 km/h (1 Bft)
26.10.2013 04:40 10,2 C 74 % 1020,7 hPa 0,0 l/m 3,1 km/h (1 Bft) O 90 5,8 C 10,7 C 5,8 km/h (2 Bft)
26.10.2013 04:45 10,2 C 75 % 1020,9 hPa 0,0 l/m 3,7 km/h (1 Bft) NO 45 6,0 C 10,4 C 7,4 km/h (2 Bft)
26.10.2013 04:50 10,3 C 75 % 1020,9 hPa 0,0 l/m 4,8 km/h (1 Bft) O-NO 67 6,1 C 10,2 C 4,8 km/h (1 Bft)
26.10.2013 04:55 10,1 C 75 % 1020,9 hPa 0,0 l/m 4,8 km/h (1 Bft) O-NO 67 5,9 C 10,2 C 8,7 km/h (2 Bft)
26.10.2013 05:00 9,9 C 75 % 1020,9 hPa 0,0 l/m 3,5 km/h (1 Bft) O-SO 112 5,7 C 10,5 C 3,9 km/h (1 Bft)
26.10.2013 05:05 9,6 C 76 % 1020,6 hPa 0,0 l/m 2,3 km/h (1 Bft) O 90 5,6 C 10,3 C 0,0 km/h (0 Bft)
26.10.2013 05:10 9,6 C 77 % 1020,6 hPa 0,0 l/m 1,0 km/h (0 Bft) S 180 5,8 C 10,1 C 1,6 km/h (1 Bft)
26.10.2013 05:15 9,1 C 77 % 1020,6 hPa 0,0 l/m 0,3 km/h (0 Bft) S-SO 157 5,3 C 9,9 C 0,0 km/h (0 Bft)
26.10.2013 05:20 8,9 C 77 % 1020,6 hPa 0,0 l/m 0,3 km/h (0 Bft) S-SW 202 5,1 C 9,6 C 0,0 km/h (0 Bft)
26.10.2013 05:25 9,7 C 78 % 1020,9 hPa 0,0 l/m 0,5 km/h (0 Bft) O 90 6,1 C 9,6 C 4,5 km/h (1 Bft)
26.10.2013 05:30 9,8 C 78 % 1020,9 hPa 0,0 l/m 1,9 km/h (1 Bft) O 90 6,1 C 10,1 C 3,7 km/h (1 Bft)
26.10.2013 05:35 10,0 C 78 % 1020,9 hPa 0,0 l/m 2,1 km/h (1 Bft) NO 45 6,3 C 10,1 C 4,8 km/h (1 Bft)
26.10.2013 05:40 10,2 C 77 % 1020,9 hPa 0,0 l/m 2,4 km/h (1 Bft) W 270 6,4 C 10,3 C 3,4 km/h (1 Bft)
26.10.2013 05:45 10,2 C 76 % 1020,6 hPa 0,0 l/m 2,6 km/h (1 Bft) S-SO 157 6,2 C 10,4 C 6,0 km/h (2 Bft)
26.10.2013 05:50 10,3 C 76 % 1020,6 hPa 0,0 l/m 2,6 km/h (1 Bft) NO 45 6,3 C 10,5 C 3,7 km/h (1 Bft)
26.10.2013 05:55 9,9 C 76 % 1020,6 hPa 0,0 l/m 2,6 km/h (1 Bft) O-NO 67 5,9 C 10,7 C 12,4 km/h (3 Bft)
26.10.2013 06:00 9,6 C 76 % 1020,6 hPa 0,0 l/m 1,6 km/h (1 Bft) NO 45 5,6 C 10,5 C 1,8 km/h (1 Bft)
26.10.2013 06:05 9,6 C 77 % 1020,8 hPa 0,0 l/m 1,4 km/h (1 Bft) O 90 5,8 C 10,4 C 0,0 km/h (0 Bft)
26.10.2013 06:09 9,3 C 77 % 1020,8 hPa 0,0 l/m 1,1 km/h (1 Bft) N-NW 337 5,5 C 10,3 C 1,8 km/h (1 Bft)
26.10.2013 06:10 9,3 C 77 % 1020,8 hPa 0,0 l/m 1,1 km/h (1 Bft) N-NW 337 5,5 C 10,3 C 1,8 km/h (1 Bft)
26.10.2013 06:15 9,1 C 78 % 1020,8 hPa 0,0 l/m 0,6 km/h (0 Bft) O 90 5,5 C 9,9 C 0,0 km/h (0 Bft)
26.10.2013 06:20 9,1 C 78 % 1020,8 hPa 0,0 l/m 0,3 km/h (0 Bft) S-SW 202 5,5 C 9,9 C 0,0 km/h (0 Bft)
26.10.2013 06:25 9,3 C 79 % 1020,6 hPa 0,0 l/m 0,3 km/h (0 Bft) S 180 5,8 C 9,9 C 2,7 km/h (1 Bft)
26.10.2013 06:30 9,3 C 78 % 1020,6 hPa 0,0 l/m 0,8 km/h (0 Bft) O-SO 112 5,7 C 10,0 C 1,8 km/h (1 Bft)
26.10.2013 06:35 9,5 C 78 % 1020,6 hPa 0,0 l/m 0,6 km/h (0 Bft) SO 135 5,9 C 10,1 C 0,0 km/h (0 Bft)
26.10.2013 06:40 9,1 C 78 % 1020,6 hPa 0,0 l/m 0,3 km/h (0 Bft) S 180 5,5 C 10,0 C 0,0 km/h (0 Bft)
26.10.2013 06:45 8,7 C 78 % 1020,8 hPa 0,0 l/m 0,8 km/h (0 Bft) W-SW 247 5,1 C 9,7 C 0,0 km/h (0 Bft)
26.10.2013 06:50 8,5 C 78 % 1020,8 hPa 0,0 l/m 0,8 km/h (0 Bft) S-SW 202 4,9 C 9,3 C 0,0 km/h (0 Bft)
26.10.2013 06:55 8,7 C 79 % 1020,8 hPa 0,0 l/m 0,3 km/h (0 Bft) O-SO 112 5,3 C 8,8 C 0,0 km/h (0 Bft)
26.10.2013 07:00 8,6 C 79 % 1020,8 hPa 0,0 l/m 0,3 km/h (0 Bft) O-SO 112 5,2 C 8,7 C 0,0 km/h (0 Bft)
26.10.2013 07:05 8,2 C 79 % 1020,8 hPa 0,0 l/m 0,0 km/h (0 Bft) O-SO 112 4,8 C 8,4 C 0,0 km/h (0 Bft)
26.10.2013 07:10 7,7 C 79 % 1020,8 hPa 0,0 l/m 0,0 km/h (0 Bft) O-SO 112 4,3 C 8,1 C 0,0 km/h (0 Bft)
26.10.2013 07:15 7,5 C 80 % 1020,8 hPa 0,0 l/m 0,0 km/h (0 Bft) O 90 4,3 C 7,8 C 0,0 km/h (0 Bft)
26.10.2013 07:20 7,3 C 80 % 1020,8 hPa 0,0 l/m 0,0 km/h (0 Bft) S-SO 157 4,1 C 7,6 C 0,0 km/h (0 Bft)
26.10.2013 07:25 7,1 C 81 % 1021,0 hPa 0,0 l/m 0,0 km/h (0 Bft) S 180 4,1 C 7,5 C 0,0 km/h (0 Bft)
26.10.2013 07:30 7,5 C 82 % 1021,0 hPa 0,0 l/m 0,0 km/h (0 Bft) S-SO 157 4,6 C 7,4 C 0,0 km/h (0 Bft)
26.10.2013 07:35 7,4 C 82 % 1021,0 hPa 0,0 l/m 0,0 km/h (0 Bft) S-SO 157 4,5 C 7,4 C 0,0 km/h (0 Bft)
26.10.2013 07:40 7,3 C 82 % 1021,0 hPa 0,0 l/m 0,0 km/h (0 Bft) SO 135 4,4 C 7,5 C 0,0 km/h (0 Bft)
26.10.2013 07:45 7,1 C 82 % 1021,1 hPa 0,0 l/m 0,0 km/h (0 Bft) SO 135 4,2 C 7,4 C 0,0 km/h (0 Bft)
26.10.2013 07:50 7,0 C 82 % 1021,1 hPa 0,0 l/m 0,0 km/h (0 Bft) SO 135 4,1 C 7,2 C 0,0 km/h (0 Bft)
26.10.2013 07:55 6,8 C 83 % 1021,1 hPa 0,0 l/m 0,2 km/h (0 Bft) S 180 4,1 C 7,2 C 0,0 km/h (0 Bft)
26.10.2013 08:00 6,8 C 83 % 1021,1 hPa 0,0 l/m 0,2 km/h (0 Bft) O-SO 112 4,1 C 7,1 C 0,0 km/h (0 Bft)
26.10.2013 08:05 6,8 C 83 % 1021,4 hPa 0,0 l/m 0,0 km/h (0 Bft) S-SO 157 4,1 C 6,9 C 0,0 km/h (0 Bft)
26.10.2013 08:10 6,5 C 83 % 1021,4 hPa 0,0 l/m 0,0 km/h (0 Bft) S-SO 157 3,8 C 6,9 C 0,0 km/h (0 Bft)
26.10.2013 08:15 6,3 C 84 % 1021,4 hPa 0,0 l/m 0,0 km/h (0 Bft) S-SO 157 3,8 C 6,7 C 0,0 km/h (0 Bft)
26.10.2013 08:20 6,6 C 85 % 1021,4 hPa 0,0 l/m 0,0 km/h (0 Bft) O-SO 112 4,3 C 6,6 C 0,0 km/h (0 Bft)
26.10.2013 08:25 6,6 C 85 % 1021,8 hPa 0,0 l/m 0,0 km/h (0 Bft) O-SO 112 4,3 C 6,6 C 1,6 km/h (1 Bft)
26.10.2013 08:30 6,5 C 85 % 1021,8 hPa 0,0 l/m 0,3 km/h (0 Bft) S-SW 202 4,2 C 6,9 C 0,0 km/h (0 Bft)
26.10.2013 08:35 6,5 C 86 % 1021,8 hPa 0,0 l/m 0,2 km/h (0 Bft) O-SO 112 4,3 C 6,9 C 1,8 km/h (1 Bft)
26.10.2013 08:40 6,8 C 86 % 1021,8 hPa 0,0 l/m 0,5 km/h (0 Bft) O-SO 112 4,6 C 6,9 C 2,9 km/h (1 Bft)
26.10.2013 08:45 7,2 C 86 % 1021,8 hPa 0,0 l/m 0,8 km/h (0 Bft) O-SO 112 5,0 C 7,0 C 2,4 km/h (1 Bft)
26.10.2013 08:50 7,0 C 86 % 1021,8 hPa 0,0 l/m 0,8 km/h (0 Bft) O-SO 112 4,8 C 7,0 C 2,4 km/h (1 Bft)
26.10.2013 08:55 7,0 C 86 % 1021,8 hPa 0,0 l/m 0,2 km/h (0 Bft) O-SO 112 4,8 C 7,5 C 0,0 km/h (0 Bft)
26.10.2013 09:00 7,1 C 87 % 1021,8 hPa 0,0 l/m 0,2 km/h (0 Bft) NO 45 5,1 C 7,5 C 3,4 km/h (1 Bft)
26.10.2013 09:05 7,6 C 87 % 1022,1 hPa 0,0 l/m 0,8 km/h (0 Bft) O-NO 67 5,6 C 7,5 C 1,8 km/h (1 Bft)
26.10.2013 09:10 8,1 C 87 % 1022,1 hPa 0,0 l/m 1,4 km/h (1 Bft) O 90 6,1 C 7,9 C 0,0 km/h (0 Bft)
26.10.2013 09:15 8,5 C 87 % 1022,1 hPa 0,0 l/m 0,8 km/h (0 Bft) NO 45 6,5 C 8,5 C 0,0 km/h (0 Bft)
26.10.2013 09:20 8,7 C 86 % 1022,1 hPa 0,0 l/m 0,8 km/h (0 Bft) NO 45 6,5 C 8,5 C 0,0 km/h (0 Bft)
26.10.2013 09:25 9,1 C 86 % 1022,1 hPa 0,0 l/m 0,3 km/h (0 Bft) O 90 6,9 C 9,1 C 1,9 km/h (1 Bft)
26.10.2013 09:30 9,3 C 86 % 1022,1 hPa 0,0 l/m 0,2 km/h (0 Bft) O 90 7,1 C 9,9 C 0,0 km/h (0 Bft)
26.10.2013 09:35 9,4 C 85 % 1022,1 hPa 0,0 l/m 0,2 km/h (0 Bft) O 90 7,0 C 10,0 C 0,0 km/h (0 Bft)
26.10.2013 09:40 10,0 C 85 % 1022,1 hPa 0,0 l/m 0,2 km/h (0 Bft) O 90 7,6 C 10,0 C 0,0 km/h (0 Bft)
26.10.2013 09:45 10,6 C 84 % 1022,1 hPa 0,0 l/m 0,2 km/h (0 Bft) O 90 8,0 C 10,0 C 0,0 km/h (0 Bft)
26.10.2013 09:50 10,9 C 83 % 1022,1 hPa 0,0 l/m 1,6 km/h (1 Bft) O 90 8,1 C 11,6 C 0,0 km/h (0 Bft)
26.10.2013 09:55 11,5 C 83 % 1022,1 hPa 0,0 l/m 1,6 km/h (1 Bft) O 90 8,7 C 11,6 C 0,0 km/h (0 Bft)
26.10.2013 10:00 11,8 C 82 % 1022,1 hPa 0,0 l/m 1,6 km/h (1 Bft) O 90 8,8 C 11,6 C 0,0 km/h (0 Bft)
26.10.2013 10:05 12,6 C 79 % 1022,3 hPa 0,0 l/m 1,1 km/h (1 Bft) O-NO 67 9,1 C 15,0 C 1,8 km/h (1 Bft)
26.10.2013 10:10 12,8 C 78 % 1022,3 hPa 0,0 l/m 1,1 km/h (1 Bft) O-NO 67 9,1 C 15,0 C 1,8 km/h (1 Bft)
26.10.2013 10:15 12,8 C 78 % 1022,3 hPa 0,0 l/m 1,1 km/h (1 Bft) O-NO 67 9,1 C 15,0 C 1,8 km/h (1 Bft)
26.10.2013 10:20 13,3 C 76 % 1022,3 hPa 0,0 l/m 0,0 km/h (0 Bft) O-NO 67 9,2 C 15,0 C 0,0 km/h (0 Bft)
26.10.2013 10:25 13,8 C 75 % 1022,4 hPa 0,0 l/m 0,0 km/h (0 Bft) O-NO 67 9,4 C 15,0 C 0,0 km/h (0 Bft)
26.10.2013 10:30 14,1 C 75 % 1022,4 hPa 0,0 l/m 0,0 km/h (0 Bft) O-NO 67 9,7 C 15,0 C 0,0 km/h (0 Bft)
26.10.2013 10:35 14,8 C 75 % 1022,4 hPa 0,0 l/m 0,0 km/h (0 Bft) O-NO 67 10,4 C 15,0 C 0,0 km/h (0 Bft)
26.10.2013 10:40 15,2 C 75 % 1022,4 hPa 0,0 l/m 0,0 km/h (0 Bft) O-NO 67 10,8 C 15,0 C 0,0 km/h (0 Bft)
26.10.2013 10:45 15,8 C 72 % 1023,1 hPa 0,0 l/m 0,0 km/h (0 Bft) O-NO 67 10,8 C 15,0 C 0,0 km/h (0 Bft)
26.10.2013 10:50 15,9 C 71 % 1023,1 hPa 0,0 l/m 0,0 km/h (0 Bft) O-NO 67 10,6 C 15,0 C 0,0 km/h (0 Bft)
26.10.2013 10:55 15,9 C 71 % 1023,1 hPa 0,0 l/m 0,3 km/h (0 Bft) O-NO 67 10,6 C 22,8 C 2,1 km/h (1 Bft)
26.10.2013 11:00 15,9 C 71 % 1023,1 hPa 0,0 l/m 0,3 km/h (0 Bft) O 90 10,6 C 23,6 C 2,4 km/h (1 Bft)
26.10.2013 11:05 16,3 C 70 % 1023,2 hPa 0,0 l/m 1,1 km/h (1 Bft) O-NO 67 10,8 C 24,6 C 0,0 km/h (0 Bft)
26.10.2013 11:09 16,6 C 70 % 1023,2 hPa 0,0 l/m 1,1 km/h (1 Bft) O-NO 67 11,1 C 24,6 C 0,0 km/h (0 Bft)
26.10.2013 11:10 16,6 C 70 % 1023,2 hPa 0,0 l/m 1,1 km/h (1 Bft) O-NO 67 11,1 C 24,6 C 0,0 km/h (0 Bft)
26.10.2013 11:15 17,0 C 67 % 1023,2 hPa 0,0 l/m 2,1 km/h (1 Bft) O 90 10,8 C 23,8 C 5,1 km/h (1 Bft)
26.10.2013 11:20 17,6 C 64 % 1023,2 hPa 0,0 l/m 3,1 km/h (1 Bft) O 90 10,7 C 23,1 C 4,5 km/h (1 Bft)
26.10.2013 11:25 17,9 C 62 % 1023,0 hPa 0,0 l/m 2,9 km/h (1 Bft) O 90 10,5 C 23,4 C 0,0 km/h (0 Bft)
26.10.2013 11:30 18,3 C 62 % 1023,0 hPa 0,0 l/m 1,8 km/h (1 Bft) O 90 10,9 C 24,0 C 0,0 km/h (0 Bft)
26.10.2013 11:35 18,7 C 58 % 1023,0 hPa 0,0 l/m 0,5 km/h (0 Bft) NO 45 10,3 C 24,6 C 1,8 km/h (1 Bft)
26.10.2013 11:40 19,1 C 58 % 1023,0 hPa 0,0 l/m 1,8 km/h (1 Bft) S 180 10,6 C 25,8 C 6,1 km/h (2 Bft)
26.10.2013 11:45 18,8 C 58 % 1023,6 hPa 0,0 l/m 3,5 km/h (1 Bft) O-NO 67 10,4 C 25,7 C 4,8 km/h (1 Bft)
26.10.2013 11:50 18,5 C 58 % 1023,6 hPa 0,0 l/m 3,9 km/h (1 Bft) O 90 10,1 C 23,8 C 5,0 km/h (1 Bft)
26.10.2013 11:55 18,2 C 57 % 1023,6 hPa 0,0 l/m 3,5 km/h (1 Bft) NO 45 9,5 C 22,1 C 5,6 km/h (1 Bft)
26.10.2013 12:00 17,9 C 58 % 1023,6 hPa 0,0 l/m 3,1 km/h (1 Bft) O-NO 67 9,5 C 21,3 C 5,8 km/h (2 Bft)
26.10.2013 12:05 18,0 C 58 % 1023,0 hPa 0,0 l/m 2,3 km/h (1 Bft) O 90 9,6 C 21,6 C 3,2 km/h (1 Bft)
26.10.2013 12:10 19,3 C 57 % 1023,0 hPa 0,0 l/m 1,3 km/h (1 Bft) O 90 10,6 C 23,4 C 2,6 km/h (1 Bft)
26.10.2013 12:15 19,4 C 55 % 1023,0 hPa 0,0 l/m 1,3 km/h (1 Bft) NO 45 10,1 C 24,4 C 1,9 km/h (1 Bft)
26.10.2013 12:20 19,7 C 55 % 1023,0 hPa 0,0 l/m 1,4 km/h (1 Bft) O 90 10,4 C 24,9 C 2,1 km/h (1 Bft)
26.10.2013 12:25 20,2 C 52 % 1023,7 hPa 0,0 l/m 1,3 km/h (1 Bft) O 90 10,0 C 25,9 C 2,6 km/h (1 Bft)
26.10.2013 12:30 20,3 C 52 % 1023,7 hPa 0,0 l/m 1,3 km/h (1 Bft) O 90 10,1 C 26,0 C 2,3 km/h (1 Bft)
26.10.2013 12:35 19,9 C 49 % 1023,7 hPa 0,0 l/m 2,6 km/h (1 Bft) NO 45 8,9 C 26,4 C 3,2 km/h (1 Bft)
26.10.2013 12:40 20,0 C 49 % 1023,7 hPa 0,0 l/m 2,6 km/h (1 Bft) NO 45 9,0 C 26,2 C 0,0 km/h (0 Bft)
26.10.2013 12:45 20,2 C 49 % 1023,8 hPa 0,0 l/m 1,1 km/h (1 Bft) NO 45 9,1 C 26,9 C 2,1 km/h (1 Bft)
26.10.2013 12:50 20,0 C 49 % 1023,8 hPa 0,0 l/m 0,8 km/h (0 Bft) O 90 9,0 C 27,2 C 3,4 km/h (1 Bft)
26.10.2013 12:55 19,8 C 50 % 1023,8 hPa 0,0 l/m 1,1 km/h (1 Bft) O-NO 67 9,1 C 27,4 C 1,6 km/h (1 Bft)
26.10.2013 13:00 20,2 C 49 % 1023,8 hPa 0,0 l/m 1,1 km/h (1 Bft) O-NO 67 9,1 C 27,6 C 2,1 km/h (1 Bft)
26.10.2013 13:05 20,2 C 47 % 1023,5 hPa 0,0 l/m 0,5 km/h (0 Bft) N-NO 22 8,5 C 28,1 C 0,0 km/h (0 Bft)
26.10.2013 13:10 19,8 C 50 % 1023,5 hPa 0,0 l/m 0,2 km/h (0 Bft) N-NO 22 9,1 C 28,4 C 0,0 km/h (0 Bft)
26.10.2013 13:15 20,0 C 49 % 1023,5 hPa 0,0 l/m 1,0 km/h (0 Bft) O 90 9,0 C 28,9 C 2,7 km/h (1 Bft)
26.10.2013 13:20 20,0 C 49 % 1023,5 hPa 0,0 l/m 1,9 km/h (1 Bft) O-NO 67 9,0 C 28,4 C 3,5 km/h (1 Bft)
26.10.2013 13:25 20,2 C 49 % 1023,6 hPa 0,0 l/m 2,6 km/h (1 Bft) O 90 9,1 C 27,9 C 0,0 km/h (0 Bft)
26.10.2013 13:30 20,1 C 50 % 1023,6 hPa 0,0 l/m 2,1 km/h (1 Bft) NO 45 9,3 C 27,9 C 1,9 km/h (1 Bft)
26.10.2013 13:35 20,1 C 49 % 1023,6 hPa 0,0 l/m 1,3 km/h (1 Bft) N-NO 22 9,0 C 28,2 C 3,1 km/h (1 Bft)
26.10.2013 13:40 20,3 C 48 % 1023,6 hPa 0,0 l/m 2,6 km/h (1 Bft) NW 315 8,9 C 27,9 C 7,4 km/h (2 Bft)
26.10.2013 13:45 20,4 C 49 % 1023,4 hPa 0,0 l/m 3,4 km/h (1 Bft) NO 45 9,3 C 27,6 C 4,7 km/h (1 Bft)
26.10.2013 13:50 20,4 C 49 % 1023,4 hPa 0,0 l/m 3,9 km/h (1 Bft) NW 315 9,3 C 27,2 C 6,8 km/h (2 Bft)
26.10.2013 13:55 20,5 C 48 % 1023,4 hPa 0,0 l/m 4,7 km/h (1 Bft) N 360 9,1 C 26,6 C 6,4 km/h (2 Bft)
26.10.2013 14:00 20,7 C 49 % 1023,4 hPa 0,0 l/m 4,7 km/h (1 Bft) N 360 9,6 C 26,6 C 6,4 km/h (2 Bft)
26.10.2013 14:05 20,7 C 48 % 1023,4 hPa 0,0 l/m 4,7 km/h (1 Bft) N 360 9,3 C 26,6 C 6,4 km/h (2 Bft)
26.10.2013 14:10 20,3 C 49 % 1023,4 hPa 0,0 l/m 4,7 km/h (1 Bft) N 360 9,2 C 26,6 C 6,4 km/h (2 Bft)
26.10.2013 14:15 20,0 C 49 % 1023,4 hPa 0,0 l/m 0,0 km/h (0 Bft) N 360 9,0 C 26,6 C 0,0 km/h (0 Bft)
26.10.2013 14:20 20,2 C 50 % 1023,4 hPa 0,0 l/m 0,0 km/h (0 Bft) N 360 9,4 C 26,6 C 0,0 km/h (0 Bft)
26.10.2013 14:25 20,0 C 52 % 1022,9 hPa 0,0 l/m 0,0 km/h (0 Bft) N 360 9,8 C 26,6 C 0,0 km/h (0 Bft)
26.10.2013 14:30 20,1 C 52 % 1022,9 hPa 0,0 l/m 0,0 km/h (0 Bft) N 360 9,9 C 26,6 C 0,0 km/h (0 Bft)
26.10.2013 14:35 20,2 C 51 % 1022,9 hPa 0,0 l/m 0,0 km/h (0 Bft) N 360 9,7 C 26,6 C 0,0 km/h (0 Bft)
26.10.2013 14:40 20,0 C 52 % 1022,9 hPa 0,0 l/m 0,0 km/h (0 Bft) N 360 9,8 C 26,6 C 0,0 km/h (0 Bft)
26.10.2013 14:45 20,0 C 50 % 1022,4 hPa 0,0 l/m 0,0 km/h (0 Bft) N 360 9,3 C 26,6 C 0,0 km/h (0 Bft)
26.10.2013 14:50 20,3 C 49 % 1022,4 hPa 0,0 l/m 0,0 km/h (0 Bft) N 360 9,2 C 26,6 C 0,0 km/h (0 Bft)
26.10.2013 14:55 19,8 C 50 % 1022,4 hPa 0,0 l/m 0,0 km/h (0 Bft) N 360 9,1 C 26,6 C 0,0 km/h (0 Bft)
26.10.2013 15:00 19,8 C 51 % 1022,4 hPa 0,0 l/m 0,0 km/h (0 Bft) N 360 9,4 C 26,6 C 0,0 km/h (0 Bft)
26.10.2013 15:05 19,5 C 52 % 1022,2 hPa 0,0 l/m 0,0 km/h (0 Bft) N 360 9,4 C 26,6 C 0,0 km/h (0 Bft)
26.10.2013 15:10 19,5 C 53 % 1022,2 hPa 0,0 l/m 0,0 km/h (0 Bft) N 360 9,7 C 26,6 C 0,0 km/h (0 Bft)
26.10.2013 15:15 19,7 C 51 % 1022,2 hPa 0,0 l/m 0,0 km/h (0 Bft) N 360 9,3 C 26,6 C 0,0 km/h (0 Bft)
26.10.2013 15:20 19,5 C 52 % 1022,2 hPa 0,0 l/m 0,0 km/h (0 Bft) N 360 9,4 C 26,6 C 0,0 km/h (0 Bft)
26.10.2013 15:25 19,4 C 52 % 1021,9 hPa 0,0 l/m 0,0 km/h (0 Bft) N 360 9,3 C 26,6 C 0,0 km/h (0 Bft)
26.10.2013 15:30 19,3 C 53 % 1021,9 hPa 0,0 l/m 0,0 km/h (0 Bft) N 360 9,5 C 26,6 C 0,0 km/h (0 Bft)
26.10.2013 15:35 19,3 C 53 % 1021,9 hPa 0,0 l/m 0,0 km/h (0 Bft) N 360 9,5 C 26,6 C 0,0 km/h (0 Bft)
26.10.2013 15:40 19,4 C 52 % 1021,9 hPa 0,0 l/m 0,0 km/h (0 Bft) N 360 9,3 C 26,6 C 0,0 km/h (0 Bft)
26.10.2013 15:45 19,3 C 53 % 1022,1 hPa 0,0 l/m 0,0 km/h (0 Bft) N 360 9,5 C 26,6 C 0,0 km/h (0 Bft)
26.10.2013 15:50 19,5 C 52 % 1022,1 hPa 0,0 l/m 0,0 km/h (0 Bft) N 360 9,4 C 26,6 C 0,0 km/h (0 Bft)
26.10.2013 15:55 19,7 C 51 % 1022,1 hPa 0,0 l/m 0,0 km/h (0 Bft) N 360 9,3 C 26,6 C 0,0 km/h (0 Bft)
26.10.2013 16:00 19,7 C 50 % 1022,1 hPa 0,0 l/m 0,0 km/h (0 Bft) N 360 9,0 C 26,6 C 0,0 km/h (0 Bft)
26.10.2013 16:05 19,8 C 50 % 1022,1 hPa 0,0 l/m 0,0 km/h (0 Bft) N 360 9,1 C 26,6 C 0,0 km/h (0 Bft)
26.10.2013 16:10 19,8 C 50 % 1022,1 hPa 0,0 l/m 0,0 km/h (0 Bft) N 360 9,1 C 26,6 C 0,0 km/h (0 Bft)
26.10.2013 16:15 19,7 C 51 % 1022,1 hPa 0,0 l/m 0,0 km/h (0 Bft) N 360 9,3 C 26,6 C 0,0 km/h (0 Bft)
26.10.2013 16:20 19,8 C 51 % 1022,1 hPa 0,0 l/m 0,0 km/h (0 Bft) N 360 9,4 C 26,6 C 0,0 km/h (0 Bft)
26.10.2013 16:25 19,8 C 51 % 1022,1 hPa 0,0 l/m 0,0 km/h (0 Bft) N 360 9,4 C 26,6 C 0,0 km/h (0 Bft)
26.10.2013 16:30 19,7 C 52 % 1022,1 hPa 0,0 l/m 0,0 km/h (0 Bft) N 360 9,6 C 26,6 C 0,0 km/h (0 Bft)
26.10.2013 16:35 19,6 C 53 % 1022,1 hPa 0,0 l/m 0,0 km/h (0 Bft) N 360 9,8 C 26,6 C 0,0 km/h (0 Bft)
26.10.2013 16:40 19,5 C 54 % 1022,1 hPa 0,0 l/m 0,0 km/h (0 Bft) N 360 9,9 C 26,6 C 0,0 km/h (0 Bft)
26.10.2013 16:45 19,4 C 55 % 1021,8 hPa 0,0 l/m 0,0 km/h (0 Bft) N 360 10,1 C 26,6 C 0,0 km/h (0 Bft)
26.10.2013 16:50 19,3 C 56 % 1021,8 hPa 0,0 l/m 0,0 km/h (0 Bft) N 360 10,3 C 26,6 C 0,0 km/h (0 Bft)
26.10.2013 16:55 19,1 C 58 % 1021,8 hPa 0,0 l/m 0,0 km/h (0 Bft) N 360 10,6 C 26,6 C 0,0 km/h (0 Bft)
26.10.2013 17:00 18,9 C 58 % 1021,8 hPa 0,0 l/m 0,0 km/h (0 Bft) N 360 10,5 C 26,6 C 0,0 km/h (0 Bft)
26.10.2013 17:03 18,7 C 59 % 1021,6 hPa 0,0 l/m 0,0 km/h (0 Bft) N 360 10,5 C 26,6 C 0,0 km/h (0 Bft)
26.10.2013 17:05 18,7 C 59 % 1021,6 hPa 0,0 l/m 0,0 km/h (0 Bft) N 360 10,5 C 26,6 C 0,0 km/h (0 Bft)
26.10.2013 17:10 18,5 C 59 % 1021,6 hPa 0,0 l/m 0,0 km/h (0 Bft) N 360 10,3 C 26,6 C 0,0 km/h (0 Bft)
26.10.2013 17:15 18,3 C 60 % 1021,6 hPa 0,0 l/m 0,0 km/h (0 Bft) N 360 10,4 C 26,6 C 0,0 km/h (0 Bft)
26.10.2013 17:20 18,1 C 61 % 1021,6 hPa 0,0 l/m 0,0 km/h (0 Bft) N 360 10,5 C 26,6 C 0,0 km/h (0 Bft)
26.10.2013 17:25 17,9 C 61 % 1021,6 hPa 0,0 l/m 0,0 km/h (0 Bft) N 360 10,3 C 26,6 C 0,0 km/h (0 Bft)
26.10.2013 17:30 17,7 C 61 % 1021,6 hPa 0,0 l/m 0,0 km/h (0 Bft) N 360 10,1 C 26,6 C 0,0 km/h (0 Bft)
26.10.2013 17:35 17,3 C 62 % 1021,6 hPa 0,0 l/m 0,0 km/h (0 Bft) N 360 9,9 C 26,6 C 0,0 km/h (0 Bft)
26.10.2013 17:40 16,9 C 63 % 1021,6 hPa 0,0 l/m 0,0 km/h (0 Bft) N 360 9,8 C 26,6 C 0,0 km/h (0 Bft)
26.10.2013 17:45 15,8 C 66 % 1021,4 hPa 0,0 l/m 0,0 km/h (0 Bft) N 360 9,5 C 26,6 C 0,0 km/h (0 Bft)
26.10.2013 17:50 15,9 C 66 % 1021,4 hPa 0,0 l/m 0,0 km/h (0 Bft) N 360 9,6 C 26,6 C 0,0 km/h (0 Bft)
26.10.2013 17:55 16,0 C 66 % 1021,4 hPa 0,0 l/m 0,0 km/h (0 Bft) N 360 9,7 C 26,6 C 0,0 km/h (0 Bft)
26.10.2013 18:00 15,9 C 68 % 1021,4 hPa 0,0 l/m 0,0 km/h (0 Bft) N 360 10,0 C 26,6 C 0,0 km/h (0 Bft)
26.10.2013 18:05 15,9 C 67 % 1021,8 hPa 0,0 l/m 0,0 km/h (0 Bft) N 360 9,8 C 26,6 C 0,0 km/h (0 Bft)
26.10.2013 18:10 15,4 C 69 % 1021,8 hPa 0,0 l/m 0,0 km/h (0 Bft) N 360 9,7 C 26,6 C 0,0 km/h (0 Bft)
26.10.2013 18:15 15,0 C 71 % 1021,8 hPa 0,0 l/m 0,0 km/h (0 Bft) N 360 9,8 C 26,6 C 0,0 km/h (0 Bft)
26.10.2013 18:20 14,7 C 73 % 1021,8 hPa 0,0 l/m 0,0 km/h (0 Bft) N 360 9,9 C 26,6 C 0,0 km/h (0 Bft)
26.10.2013 18:25 13,7 C 74 % 1022,0 hPa 0,0 l/m 0,0 km/h (0 Bft) N 360 9,2 C 26,6 C 0,0 km/h (0 Bft)
26.10.2013 18:30 14,0 C 76 % 1022,0 hPa 0,0 l/m 0,0 km/h (0 Bft) N 360 9,8 C 26,6 C 0,0 km/h (0 Bft)
26.10.2013 18:35 14,1 C 76 % 1022,0 hPa 0,0 l/m 0,0 km/h (0 Bft) N 360 9,9 C 26,6 C 0,0 km/h (0 Bft)
26.10.2013 18:40 13,9 C 77 % 1022,0 hPa 0,0 l/m 0,0 km/h (0 Bft) N 360 9,9 C 26,6 C 0,0 km/h (0 Bft)
26.10.2013 18:45 13,8 C 77 % 1021,8 hPa 0,0 l/m 0,0 km/h (0 Bft) N 360 9,8 C 26,6 C 0,0 km/h (0 Bft)
26.10.2013 18:50 13,7 C 77 % 1021,8 hPa 0,0 l/m 0,0 km/h (0 Bft) N 360 9,7 C 26,6 C 0,0 km/h (0 Bft)
26.10.2013 18:55 13,6 C 78 % 1021,8 hPa 0,0 l/m 0,0 km/h (0 Bft) N 360 9,8 C 26,6 C 0,0 km/h (0 Bft)
26.10.2013 19:00 13,5 C 78 % 1021,8 hPa 0,0 l/m 0,0 km/h (0 Bft) N 360 9,7 C 26,6 C 0,0 km/h (0 Bft)
26.10.2013 19:05 12,9 C 78 % 1021,8 hPa 0,0 l/m 0,0 km/h (0 Bft) N 360 9,2 C 26,6 C 0,0 km/h (0 Bft)
26.10.2013 19:10 12,8 C 79 % 1021,8 hPa 0,0 l/m 0,0 km/h (0 Bft) N 360 9,2 C 26,6 C 0,0 km/h (0 Bft)
26.10.2013 19:15 12,7 C 78 % 1021,8 hPa 0,0 l/m 0,0 km/h (0 Bft) N 360 9,0 C 26,6 C 0,0 km/h (0 Bft)
26.10.2013 19:20 12,5 C 78 % 1021,8 hPa 0,0 l/m 0,0 km/h (0 Bft) N 360 8,8 C 26,6 C 0,0 km/h (0 Bft)
26.10.2013 19:25 12,3 C 78 % 1021,7 hPa 0,0 l/m 0,0 km/h (0 Bft) N 360 8,6 C 26,6 C 0,0 km/h (0 Bft)
26.10.2013 19:30 12,2 C 78 % 1021,7 hPa 0,0 l/m 0,0 km/h (0 Bft) N 360 8,5 C 26,6 C 0,0 km/h (0 Bft)
26.10.2013 19:35 11,9 C 78 % 1021,7 hPa 0,0 l/m 0,0 km/h (0 Bft) N 360 8,2 C 26,6 C 0,0 km/h (0 Bft)
26.10.2013 19:40 11,7 C 78 % 1021,7 hPa 0,0 l/m 0,0 km/h (0 Bft) N 360 8,0 C 26,6 C 0,0 km/h (0 Bft)
26.10.2013 19:45 11,5 C 78 % 1021,4 hPa 0,0 l/m 0,0 km/h (0 Bft) N 360 7,8 C 26,6 C 0,0 km/h (0 Bft)
26.10.2013 19:50 11,6 C 79 % 1021,4 hPa 0,0 l/m 0,0 km/h (0 Bft) N 360 8,1 C 26,6 C 0,0 km/h (0 Bft)
26.10.2013 19:55 11,6 C 79 % 1021,4 hPa 0,0 l/m 0,0 km/h (0 Bft) N 360 8,1 C 26,6 C 0,0 km/h (0 Bft)
26.10.2013 20:00 11,4 C 79 % 1021,4 hPa 0,0 l/m 0,0 km/h (0 Bft) N 360 7,9 C 26,6 C 0,0 km/h (0 Bft)
26.10.2013 20:05 11,1 C 79 % 1021,2 hPa 0,0 l/m 0,0 km/h (0 Bft) N 360 7,6 C 26,6 C 0,0 km/h (0 Bft)
26.10.2013 20:10 11,0 C 80 % 1021,2 hPa 0,0 l/m 0,0 km/h (0 Bft) N 360 7,7 C 26,6 C 0,0 km/h (0 Bft)
26.10.2013 20:15 10,9 C 80 % 1021,2 hPa 0,0 l/m 0,0 km/h (0 Bft) N 360 7,6 C 26,6 C 0,0 km/h (0 Bft)
26.10.2013 20:20 11,3 C 81 % 1021,2 hPa 0,0 l/m 0,0 km/h (0 Bft) N 360 8,2 C 26,6 C 0,0 km/h (0 Bft)
26.10.2013 20:25 11,1 C 81 % 1020,9 hPa 0,0 l/m 0,0 km/h (0 Bft) SO 135 8,0 C 11,3 C 0,0 km/h (0 Bft)
26.10.2013 20:30 10,8 C 81 % 1020,9 hPa 0,0 l/m 0,0 km/h (0 Bft) S-SW 202 7,7 C 11,3 C 0,0 km/h (0 Bft)
26.10.2013 20:35 10,8 C 81 % 1020,9 hPa 0,0 l/m 0,0 km/h (0 Bft) S-SW 202 7,7 C 11,2 C 1,6 km/h (1 Bft)
26.10.2013 20:40 10,7 C 82 % 1020,9 hPa 0,0 l/m 0,0 km/h (0 Bft) S-SW 202 7,8 C 11,1 C 0,0 km/h (0 Bft)
26.10.2013 20:45 10,9 C 82 % 1020,9 hPa 0,0 l/m 0,0 km/h (0 Bft) SO 135 7,9 C 11,1 C 0,0 km/h (0 Bft)
26.10.2013 20:50 10,8 C 82 % 1020,9 hPa 0,0 l/m 0,0 km/h (0 Bft) S 180 7,9 C 11,1 C 0,0 km/h (0 Bft)
26.10.2013 20:55 10,3 C 82 % 1020,9 hPa 0,0 l/m 0,0 km/h (0 Bft) S-SO 157 7,4 C 10,8 C 0,0 km/h (0 Bft)
26.10.2013 21:00 10,0 C 82 % 1020,9 hPa 0,0 l/m 0,0 km/h (0 Bft) S-SO 157 7,1 C 10,6 C 0,0 km/h (0 Bft)
26.10.2013 21:05 10,2 C 83 % 1020,6 hPa 0,0 l/m 0,0 km/h (0 Bft) SO 135 7,4 C 10,3 C 1,8 km/h (1 Bft)
26.10.2013 21:10 10,4 C 83 % 1020,6 hPa 0,0 l/m 0,5 km/h (0 Bft) W-SW 247 7,6 C 10,4 C 3,4 km/h (1 Bft)
26.10.2013 21:15 10,2 C 83 % 1020,6 hPa 0,0 l/m 0,6 km/h (0 Bft) W 270 7,4 C 10,6 C 0,0 km/h (0 Bft)
26.10.2013 21:20 9,9 C 83 % 1020,6 hPa 0,0 l/m 0,3 km/h (0 Bft) S 180 7,2 C 10,6 C 0,0 km/h (0 Bft)
26.10.2013 21:25 10,3 C 84 % 1020,4 hPa 0,0 l/m 0,0 km/h (0 Bft) S 180 7,7 C 10,4 C 0,0 km/h (0 Bft)
26.10.2013 21:30 10,2 C 84 % 1020,4 hPa 0,0 l/m 0,0 km/h (0 Bft) SO 135 7,6 C 10,3 C 0,0 km/h (0 Bft)
26.10.2013 21:35 10,0 C 84 % 1020,4 hPa 0,0 l/m 0,0 km/h (0 Bft) S-SW 202 7,4 C 10,3 C 0,0 km/h (0 Bft)
26.10.2013 21:40 10,3 C 84 % 1020,4 hPa 0,0 l/m 0,0 km/h (0 Bft) SO 135 7,7 C 10,3 C 0,0 km/h (0 Bft)
26.10.2013 21:45 10,3 C 84 % 1020,4 hPa 0,0 l/m 0,2 km/h (0 Bft) S-SW 202 7,7 C 10,5 C 0,0 km/h (0 Bft)
26.10.2013 21:50 10,1 C 83 % 1020,4 hPa 0,0 l/m 0,2 km/h (0 Bft) S 180 7,3 C 10,6 C 0,0 km/h (0 Bft)
26.10.2013 21:55 9,7 C 83 % 1020,4 hPa 0,0 l/m 0,0 km/h (0 Bft) S-SW 202 7,0 C 10,3 C 0,0 km/h (0 Bft)
26.10.2013 22:00 9,6 C 83 % 1020,4 hPa 0,0 l/m 0,0 km/h (0 Bft) S-SO 157 6,9 C 10,1 C 0,0 km/h (0 Bft)
26.10.2013 22:05 9,7 C 84 % 1020,3 hPa 0,0 l/m 0,0 km/h (0 Bft) SO 135 7,1 C 10,0 C 0,0 km/h (0 Bft)
26.10.2013 22:10 9,7 C 84 % 1020,3 hPa 0,0 l/m 0,0 km/h (0 Bft) SO 135 7,1 C 9,9 C 0,0 km/h (0 Bft)
26.10.2013 22:15 9,6 C 85 % 1020,3 hPa 0,0 l/m 0,0 km/h (0 Bft) SO 135 7,2 C 9,8 C 0,0 km/h (0 Bft)
26.10.2013 22:20 9,3 C 84 % 1020,3 hPa 0,0 l/m 0,0 km/h (0 Bft) S-SW 202 6,7 C 9,7 C 0,0 km/h (0 Bft)
26.10.2013 22:25 9,1 C 85 % 1020,1 hPa 0,0 l/m 0,0 km/h (0 Bft) S-SW 202 6,7 C 9,5 C 0,0 km/h (0 Bft)
26.10.2013 22:30 9,0 C 85 % 1020,1 hPa 0,0 l/m 0,0 km/h (0 Bft) SO 135 6,6 C 9,4 C 0,0 km/h (0 Bft)
26.10.2013 22:35 8,9 C 85 % 1020,1 hPa 0,0 l/m 0,0 km/h (0 Bft) SO 135 6,5 C 9,3 C 0,0 km/h (0 Bft)
26.10.2013 22:40 9,3 C 86 % 1020,1 hPa 0,0 l/m 0,0 km/h (0 Bft) SO 135 7,1 C 9,3 C 0,0 km/h (0 Bft)
26.10.2013 22:45 8,9 C 86 % 1019,9 hPa 0,0 l/m 0,0 km/h (0 Bft) SO 135 6,7 C 9,1 C 0,0 km/h (0 Bft)
26.10.2013 22:50 8,9 C 87 % 1019,9 hPa 0,0 l/m 0,0 km/h (0 Bft) SO 135 6,9 C 9,0 C 0,0 km/h (0 Bft)
26.10.2013 22:55 8,7 C 86 % 1019,9 hPa 0,0 l/m 0,0 km/h (0 Bft) SO 135 6,5 C 9,0 C 0,0 km/h (0 Bft)
26.10.2013 23:00 8,7 C 86 % 1019,9 hPa 0,0 l/m 0,0 km/h (0 Bft) SO 135 6,5 C 8,8 C 0,0 km/h (0 Bft)
26.10.2013 23:03 8,7 C 87 % 1019,9 hPa 0,0 l/m 0,5 km/h (0 Bft) S-SW 202 6,7 C 9,0 C 0,0 km/h (0 Bft)
26.10.2013 23:05 8,7 C 87 % 1019,9 hPa 0,0 l/m 0,5 km/h (0 Bft) S-SW 202 6,7 C 9,0 C 0,0 km/h (0 Bft)
26.10.2013 23:10 8,6 C 87 % 1019,9 hPa 0,0 l/m 0,5 km/h (0 Bft) S-SW 202 6,6 C 9,1 C 0,0 km/h (0 Bft)
26.10.2013 23:15 8,3 C 87 % 1019,9 hPa 0,0 l/m 0,0 km/h (0 Bft) S-SW 202 6,3 C 8,8 C 0,0 km/h (0 Bft)
26.10.2013 23:20 8,6 C 88 % 1019,9 hPa 0,0 l/m 0,0 km/h (0 Bft) O-SO 112 6,7 C 8,7 C 1,6 km/h (1 Bft)
26.10.2013 23:25 8,3 C 88 % 1019,7 hPa 0,0 l/m 0,0 km/h (0 Bft) S-SW 202 6,4 C 8,8 C 0,0 km/h (0 Bft)
26.10.2013 23:30 8,6 C 89 % 1019,7 hPa 0,0 l/m 0,3 km/h (0 Bft) O-SO 112 6,9 C 8,7 C 1,8 km/h (1 Bft)
26.10.2013 23:35 8,3 C 88 % 1019,7 hPa 0,0 l/m 0,3 km/h (0 Bft) O-SO 112 6,4 C 8,9 C 0,0 km/h (0 Bft)
26.10.2013 23:40 8,5 C 89 % 1019,7 hPa 0,0 l/m 0,3 km/h (0 Bft) O-SO 112 6,8 C 8,9 C 0,0 km/h (0 Bft)
26.10.2013 23:45 8,4 C 89 % 1019,3 hPa 0,0 l/m 0,0 km/h (0 Bft) O-SO 112 6,7 C 8,8 C 0,0 km/h (0 Bft)
26.10.2013 23:50 8,4 C 89 % 1019,3 hPa 0,0 l/m 0,0 km/h (0 Bft) W-SW 247 6,7 C 8,7 C 1,8 km/h (1 Bft)
26.10.2013 23:55 8,2 C 89 % 1019,3 hPa 0,0 l/m 0,0 km/h (0 Bft) SW 225 6,5 C 8,8 C 0,0 km/h (0 Bft)
_ Min-Zeit 01:00 13:05 00:00 - 23:55 - - 08:15 01:05 23:55
Minimum _ 6,2 C 47 % 1019,1 hPa - 0,0 km/h (0 Bft) - - 3,8 C 6,5 C 0,0 km/h (0 Bft)
_ Max-Zeit 14:05 23:55 13:00 23:55 04:55 - - 11:10 13:15 05:55
Maximum _ 20,7 C 89 % 1023,8 hPa 0,0 l/m 4,8 km/h
O-NO (1 Bft)
- - 11,1 C 28,9 C 12,4 km/h
O-NO (3 Bft)
Durchschnitt _ 12,6 C 73 % 1021,4 hPa #0,0 l/m 0,9 km/h (0 Bft) O - 7,5 C 16,2 C 1,3 km/h (1 Bft)